This is the latest recevied weather packets stored in our database for station/object LU1MQF-13. If no packets are shown the sender has not sent any weather packets the latest 10 day(s).
| Time | Temp. | Humidity | Pressure | Rain* | Wind** | Luminosity | Snow |
|---|---|---|---|---|---|---|---|
| 1777453913 | 15° C | 42% | 933.8 hPa | - | - | - | - |
| 1777453013 | 15° C | 42% | 933.9 hPa | - | - | - | - |
| 1777452113 | 16.11° C | 41% | 934.1 hPa | - | - | - | - |
| 1777451213 | 16.11° C | 41% | 934 hPa | - | - | - | - |
| 1777450313 | 16.11° C | 41% | 933.8 hPa | - | - | - | - |
| 1777449413 | 16.11° C | 41% | 933.6 hPa | - | - | - | - |
| 1777448514 | 16.11° C | 41% | 933.7 hPa | - | - | - | - |
| 1777447614 | 16.11° C | 41% | 933.7 hPa | - | - | - | - |
| 1777446713 | 17.22° C | 41% | 933.4 hPa | - | - | - | - |
| 1777445813 | 17.22° C | 41% | 933.2 hPa | - | - | - | - |
| 1777444914 | 17.22° C | 41% | 933 hPa | - | - | - | - |
| 1777444014 | 17.22° C | 42% | 932.9 hPa | - | - | - | - |
| 1777443114 | 17.22° C | 42% | 932.8 hPa | - | - | - | - |
| 1777442214 | 17.22° C | 42% | 933 hPa | - | - | - | - |
| 1777441317 | 17.22° C | 42% | 933.1 hPa | - | - | - | - |
| 1777440414 | 17.22° C | 42% | 933.2 hPa | - | - | - | - |
| 1777439513 | 17.22° C | 42% | 933.3 hPa | - | - | - | - |
| 1777438613 | 17.22° C | 42% | 933.6 hPa | - | - | - | - |
| 1777437713 | 17.22° C | 43% | 933.6 hPa | - | - | - | - |
| 1777436813 | 17.22° C | 43% | 933.4 hPa | - | - | - | - |
| 1777435913 | 17.22° C | 44% | 933.2 hPa | - | - | - | - |
| 1777435013 | 17.22° C | 42% | 932.8 hPa | - | - | - | - |
| 1777434113 | 17.22° C | 43% | 932.6 hPa | - | - | - | - |
| 1777433217 | 17.78° C | 46% | 932.2 hPa | - | - | - | - |
| 1777432313 | 17.22° C | 43% | 932 hPa | - | - | - | - |
* Rain since midnight (hover to see other rain measurements)
** Current wind speed in m/s (hover to see current wind gust speed)